Location: St. Louis
(38.6270°N, 90.1994°W)
Time: 10:15:37
(UTC-06:00)

Vanguard 2 Rocket - Pass Details

Date: 08 December 2021
Orbit: 553 x 3325 km, 32.9° (Epoch: 23 January)

Event Time Altitude Azimuth Distance (km) Brightness Sun altitude
Rises 16:13:01 0° 230° (SW) 2,753 12.1 3.6°
Reaches altitude 10° 16:15:13 10° 219° (SW) 1,952 10.3 3.2°
Maximum altitude 16:19:01 30° 156° (SSE) 1,295 7.9 2.6°
Drops below altitude 10° 16:24:15 10° 97° (E) 2,741 8.9 1.7°
Sets 16:27:56 0° 88° (E) 4,122 9.7 1.1°
